User: anonymous   Login
Location: Milton
(43.5183°N, 79.8775°W)
Time: 22:12:52
(UTC+00:00)
Language:

CUTE-I - Orbit

View from above orbital plane
View from above orbital plane
View from above satellite
View from above satellite

Ground track
Ground track

The orbit data is extracted from the following two-line orbital elements,

1 27844U 03031E   23080.76360237  .00000604  00000-0  28897-3 0  9996
2 27844  98.6811  89.2948 0010267  25.6513 334.5173 14.22687856 23301
Epoch (UTC): 21 March 2023 18:19:35
Eccentricity: 0.0010267
inclination: 98.6811°
perigee height: 809 km
apogee height: 823 km
right ascension of ascending node: 89.2948°
argument of perigee: 25.6513°
revolutions per day: 14.22687856
mean anomaly at epoch: 334.5173°
orbit number at epoch: 2330

The dashed part of the orbit path shows where the satellite is in the earth's shadow,  

DLR